Kenai, AK

5:42 AM AKDT on October 20, 2017 (GMT -0800)
Kenai Municipal

Weather History for PAEN - September, 2013

Change the Weather History Date:

Tuesday, September 10, 2013

  Actual Average Record
Temperature  
Mean Temperature 54 °F -  
Max Temperature 57 °F 57 °F 68 °F (2010)
Min Temperature 50 °F 38 °F 21 °F (1970)
Degree Days  
Heating Degree Days 12    
Growing Degree Days 4 (Base 50)    
Moisture  
Dew Point 51 °F    
Average Humidity 98    
Maximum Humidity 100    
Minimum Humidity 87    
Precipitation  
Precipitation 0.52 in - - ()
Sea Level Pressure  
Sea Level Pressure 29.71 in    
Wind  
Wind Speed 6 mph (NE)    
Max Wind Speed 9 mph    
Max Gust Speed -    
Visibility 9 miles    
Events Rain    
Averages and records for this station are not official NWS values.
T = Trace of Precipitation, MM = Missing Value Source: NWS Daily Summary

Daily Weather History Graph

Daily Weather History Graph

Search for Another Location

Airport or City:

Trip Planner

Search our weather history database for the weather conditions in past years. The results will help you decide how hot, cold, wet, or windy it might be!

Date:

Astronomy

Sep. 10, 2013 Rise Set
Actual Time 7:21 AM AKDT 8:40 PM AKDT
Civil Twilight 6:37 AM AKDT 9:24 PM AKDT
Nautical Twilight 5:42 AM AKDT 10:18 PM AKDT
Astronomical Twilight 4:37 AM AKDT 11:22 PM AKDT
Moon 2:37 PM AKDT (9/10) 10:10 PM AKDT (9/10)
Length of Visible Light 14h 46m
Length of Day
13h 19m
Waxing Crescent, 30% of the Moon is Illuminated
Sep 10
Waxing Crescent
Sep 12
First Quarter
Sep 19
Full
Sep 26
Last Quarter
Oct 4
New

Hourly Weather History & Observations

Time (AKDT) Temp. Dew Point Humidity Pressure Visibility Wind Dir Wind Speed Gust Speed Precip Events Conditions
12:53 AM 51.1 °F 51.1 °F 100% 29.67 in 10.0 mi North 3.5 mph - 0.00 in   Overcast
1:53 AM 50.0 °F 50.0 °F 100% 29.67 in 10.0 mi ENE 6.9 mph - 0.00 in   Overcast
2:53 AM 51.1 °F 50.0 °F 96% 29.68 in 10.0 mi NE 4.6 mph - 0.01 in Rain Light Rain
3:53 AM 50.0 °F 50.0 °F 100% 29.68 in 9.0 mi NNE 6.9 mph - 0.01 in Rain Light Rain
4:53 AM 50.0 °F 50.0 °F 100% 29.67 in 10.0 mi NNE 6.9 mph - 0.04 in Rain Light Rain
5:53 AM 50.0 °F 50.0 °F 100% 29.68 in 10.0 mi NE 8.1 mph - 0.01 in Rain Light Rain
6:53 AM 50.0 °F 50.0 °F 100% 29.68 in 10.0 mi NE 5.8 mph - 0.02 in Rain Light Rain
7:53 AM 50.0 °F 50.0 °F 100% 29.68 in 10.0 mi NE 9.2 mph - 0.01 in   Overcast
8:05 AM 50.0 °F 50.0 °F 100% 29.68 in 5.0 mi ENE 9.2 mph - 0.01 in Rain Rain
8:53 AM 50.0 °F 50.0 °F 100% 29.69 in 5.0 mi ENE 8.1 mph - 0.05 in Rain Light Rain
9:53 AM 50.0 °F 50.0 °F 100% 29.70 in 5.0 mi East 5.8 mph - 0.09 in Rain Light Rain
10:53 AM 50.0 °F 50.0 °F 100% 29.71 in 8.0 mi East 4.6 mph - 0.10 in Rain Light Rain
11:53 AM 51.1 °F 51.1 °F 100% 29.73 in 10.0 mi SE 6.9 mph - 0.04 in Rain Light Rain
12:53 PM 52.0 °F 52.0 °F 100% 29.74 in 5.0 mi ESE 5.8 mph - 0.07 in Rain Light Rain
1:53 PM 53.1 °F 53.1 °F 100% 29.75 in 5.0 mi SSE 4.6 mph - 0.05 in Rain Rain
2:53 PM 55.0 °F 54.0 °F 96% 29.75 in 10.0 mi ENE 3.5 mph - 0.01 in   Overcast
3:53 PM 55.9 °F 52.0 °F 87% 29.74 in 10.0 mi Calm Calm - N/A   Mostly Cloudy
4:53 PM 55.9 °F 53.1 °F 90% 29.74 in 10.0 mi Calm Calm - 0.00 in   Overcast
5:53 PM 57.0 °F 54.0 °F 89% 29.74 in 10.0 mi NE 6.9 mph - 0.01 in   Overcast
6:53 PM 55.0 °F 54.0 °F 96% 29.73 in 10.0 mi NNE 5.8 mph - 0.00 in   Overcast
7:53 PM 54.0 °F 54.0 °F 100% 29.73 in 10.0 mi NE 9.2 mph - 0.00 in Rain Light Rain
8:53 PM 53.1 °F 53.1 °F 100% 29.73 in 10.0 mi North 6.9 mph - 0.00 in   Overcast
9:53 PM 52.0 °F 52.0 °F 100% 29.72 in 10.0 mi North 5.8 mph - N/A   Overcast
10:43 PM 51.8 °F 51.8 °F 100% 29.70 in 10.0 mi NNE 8.1 mph - 0.00 in   Overcast
10:53 PM 51.1 °F 51.1 °F 100% 29.70 in 10.0 mi North 8.1 mph - 0.00 in   Overcast
11:53 PM 50.0 °F 50.0 °F 100% 29.70 in 10.0 mi NE 8.1 mph - N/A   Overcast